When you browse on this site, cookies collect data to enhance your experience and personalize the content and advertising you see.
Visit our Privacy Policy to learn more. By continuing to use the site, you agree to this use of cookies and data.
  • In Portugal
  • List of Countries
  • For 7 days
  • Water Temperature
  • Satellite Maps
  • Weather Map
  • Weather Widgets
  • user-avatar
    Login

    Hourly Weather Bardovo

    Today, 23 May, Thursday

    Time Temperature Precipitation Wind Pressure Humidity
    00:00 +15°C° 0 mm 1 mps 740 mmHg 91%
    01:00 +14°C° 0 mm 1 mps 739 mmHg 92%
    02:00 +14°C° 0 mm 1 mps 739 mmHg 93%
    03:00 +14°C° 0.3 mm 1 mps 739 mmHg 93%
    04:00 +15°C° 0.3 mm 1 mps 739 mmHg 94%
    05:00 +15°C° 0.3 mm 1 mps 739 mmHg 94%
    06:00 +16°C° 0.1 mm 1 mps 739 mmHg 89%
    07:00 +19°C° 0.1 mm 1 mps 739 mmHg 85%
    08:00 +20°C° 0 mm 2 mps 739 mmHg 80%
    09:00 +22°C° 0.8 mm 1 mps 739 mmHg 76%
    10:00 +23°C° 0.8 mm 1 mps 739 mmHg 72%
    11:00 +24°C° 0.8 mm 1 mps 739 mmHg 69%
    12:00 +24°C° 0.9 mm 1 mps 739 mmHg 69%
    13:00 +24°C° 0.9 mm 1 mps 739 mmHg 69%
    14:00 +24°C° 0 mm 1 mps 739 mmHg 71%
    15:00 +24°C° 0.8 mm 2 mps 739 mmHg 73%
    16:00 +23°C° 0.8 mm 2 mps 739 mmHg 76%
    17:00 +22°C° 0.8 mm 3 mps 739 mmHg 78%
    18:00 +20°C° 0 mm 3 mps 740 mmHg 81%
    19:00 +18°C° 0 mm 3 mps 740 mmHg 84%
    20:00 +17°C° 0 mm 3 mps 740 mmHg 87%
    21:00 +16°C° 0 mm 3 mps 740 mmHg 88%
    22:00 +13°C° 0 mm 3 mps 741 mmHg 90%
    23:00 +12°C° 0 mm 3 mps 741 mmHg 91%

    Tomorrow, 24 May, Friday

    Time Temperature Precipitation Wind Pressure Humidity
    00:00 +11°C° 0 mm 3 mps 741 mmHg 93%
    01:00 +11°C° 0 mm 3 mps 741 mmHg 94%
    02:00 +10°C° 0 mm 2 mps 742 mmHg 96%
    03:00 +10°C° 0 mm 2 mps 742 mmHg 95%
    04:00 +10°C° 0 mm 2 mps 742 mmHg 95%
    05:00 +10°C° 0 mm 2 mps 742 mmHg 94%
    06:00 +12°C° 0 mm 2 mps 742 mmHg 91%
    07:00 +14°C° 0 mm 2 mps 742 mmHg 88%
    08:00 +15°C° 0 mm 2 mps 742 mmHg 85%
    09:00 +16°C° 0 mm 2 mps 742 mmHg 82%
    10:00 +16°C° 0 mm 2 mps 742 mmHg 80%
    11:00 +17°C° 0 mm 3 mps 742 mmHg 77%
    12:00 +19°C° 0 mm 2 mps 742 mmHg 72%
    13:00 +20°C° 0 mm 2 mps 742 mmHg 68%
    14:00 +21°C° 0 mm 2 mps 742 mmHg 64%
    15:00 +21°C° 0.3 mm 2 mps 741 mmHg 70%
    16:00 +20°C° 0.3 mm 2 mps 741 mmHg 75%
    17:00 +21°C° 0.3 mm 1 mps 741 mmHg 81%
    18:00 +19°C° 1.9 mm 2 mps 740 mmHg 85%
    19:00 +18°C° 1.9 mm 2 mps 740 mmHg 89%
    20:00 +17°C° 1.9 mm 2 mps 740 mmHg 93%
    21:00 +16°C° 1.9 mm 2 mps 740 mmHg 95%
    22:00 +15°C° 1.9 mm 2 mps 740 mmHg 96%
    23:00 +15°C° 1.9 mm 2 mps 740 mmHg 98%

    Day after tomorrow, 25 May, Saturday

    Time Temperature Precipitation Wind Pressure Humidity
    00:00 +14°C° 0.2 mm 1 mps 740 mmHg 98%
    01:00 +13°C° 0.2 mm 1 mps 739 mmHg 98%
    02:00 +13°C° 0.2 mm 1 mps 739 mmHg 98%
    03:00 +12°C° 0.1 mm 1 mps 739 mmHg 97%
    04:00 +12°C° 0.1 mm 1 mps 739 mmHg 97%
    05:00 +12°C° 0.1 mm 1 mps 739 mmHg 96%
    06:00 +13°C° 0 mm 1 mps 739 mmHg 90%
    07:00 +15°C° 0 mm 1 mps 739 mmHg 84%
    08:00 +16°C° 0 mm 1 mps 739 mmHg 79%
    09:00 +19°C° 0 mm 1 mps 738 mmHg 68%
    10:00 +19°C° 0 mm 2 mps 738 mmHg 57%
    11:00 +21°C° 0 mm 2 mps 738 mmHg 46%
    12:00 +21°C° 0 mm 3 mps 738 mmHg 45%
    13:00 +21°C° 0 mm 3 mps 737 mmHg 44%
    14:00 +22°C° 0 mm 3 mps 737 mmHg 43%
    15:00 +20°C° 0.3 mm 4 mps 737 mmHg 54%
    16:00 +19°C° 0.3 mm 4 mps 736 mmHg 65%
    17:00 +17°C° 0.3 mm 4 mps 736 mmHg 76%
    18:00 +15°C° 0.1 mm 4 mps 736 mmHg 81%
    19:00 +14°C° 0.1 mm 3 mps 736 mmHg 85%
    20:00 +13°C° 0.1 mm 3 mps 736 mmHg 90%
    21:00 +12°C° 0 mm 2 mps 737 mmHg 91%
    22:00 +10°C° 0 mm 2 mps 737 mmHg 93%
    23:00 +9°C° 0 mm 2 mps 737 mmHg 95%

    26 May, Sunday

    Time Temperature Precipitation Wind Pressure Humidity
    00:00 +8°C° 0 mm 2 mps 737 mmHg 95%
    01:00 +7°C° 0 mm 2 mps 737 mmHg 96%
    02:00 +7°C° 0 mm 2 mps 738 mmHg 96%
    03:00 +7°C° 0 mm 2 mps 738 mmHg 96%
    04:00 +7°C° 0 mm 3 mps 738 mmHg 95%
    05:00 +7°C° 0 mm 3 mps 738 mmHg 95%
    06:00 +8°C° 0 mm 3 mps 738 mmHg 91%
    07:00 +9°C° 0 mm 3 mps 738 mmHg 86%
    08:00 +10°C° 0 mm 3 mps 738 mmHg 82%
    09:00 +12°C° 0 mm 3 mps 738 mmHg 75%
    10:00 +13°C° 0 mm 3 mps 738 mmHg 68%
    11:00 +16°C° 0 mm 3 mps 738 mmHg 61%
    12:00 +17°C° 0 mm 3 mps 738 mmHg 56%
    13:00 +18°C° 0 mm 3 mps 738 mmHg 52%
    14:00 +19°C° 0 mm 4 mps 737 mmHg 48%
    15:00 +19°C° 0.2 mm 3 mps 737 mmHg 53%
    16:00 +19°C° 0.2 mm 3 mps 736 mmHg 59%
    17:00 +18°C° 0.2 mm 3 mps 736 mmHg 64%
    18:00 +17°C° 0.3 mm 3 mps 736 mmHg 72%
    19:00 +14°C° 0.3 mm 3 mps 736 mmHg 80%
    20:00 +12°C° 0.3 mm 3 mps 735 mmHg 89%
    21:00 +12°C° 0.8 mm 3 mps 736 mmHg 91%
    22:00 +11°C° 0.8 mm 3 mps 736 mmHg 93%
    23:00 +10°C° 0.8 mm 4 mps 736 mmHg 96%

    27 May, Monday

    Time Temperature Precipitation Wind Pressure Humidity
    00:00 +8°C° 0.3 mm 4 mps 736 mmHg 96%
    01:00 +8°C° 0.3 mm 4 mps 736 mmHg 96%
    02:00 +7°C° 0.3 mm 4 mps 736 mmHg 96%
    03:00 +7°C° 0 mm 4 mps 737 mmHg 95%
    04:00 +7°C° 0 mm 4 mps 737 mmHg 95%
    05:00 +6°C° 0 mm 4 mps 737 mmHg 95%
    06:00 +7°C° 0 mm 4 mps 737 mmHg 91%
    07:00 +8°C° 0 mm 5 mps 738 mmHg 87%
    08:00 +9°C° 0 mm 5 mps 738 mmHg 83%
    09:00 +10°C° 0.1 mm 5 mps 738 mmHg 79%
    10:00 +10°C° 0.1 mm 5 mps 738 mmHg 75%
    11:00 +12°C° 0.1 mm 4 mps 739 mmHg 71%
    12:00 +14°C° 0 mm 5 mps 739 mmHg 66%
    13:00 +15°C° 0 mm 5 mps 739 mmHg 61%
    14:00 +17°C° 0 mm 5 mps 739 mmHg 56%
    15:00 +18°C° 0 mm 4 mps 738 mmHg 58%
    16:00 +19°C° 0 mm 4 mps 738 mmHg 60%
    17:00 +19°C° 0 mm 4 mps 738 mmHg 61%
    18:00 +18°C° 0.6 mm 3 mps 738 mmHg 72%
    19:00 +16°C° 0.6 mm 3 mps 738 mmHg 84%
    20:00 +14°C° 0.6 mm 3 mps 738 mmHg 95%
    21:00 +14°C° 0.8 mm 3 mps 738 mmHg 95%
    22:00 +14°C° 0.8 mm 3 mps 738 mmHg 96%
    23:00 +14°C° 0.8 mm 3 mps 738 mmHg 96%

    28 May, Tuesday

    Time Temperature Precipitation Wind Pressure Humidity
    00:00 +14°C° 0.8 mm 4 mps 738 mmHg 96%
    01:00 +14°C° 0.8 mm 4 mps 738 mmHg 96%
    02:00 +14°C° 0.8 mm 4 mps 738 mmHg 96%
    03:00 +14°C° 0.2 mm 4 mps 738 mmHg 96%
    04:00 +14°C° 0.2 mm 4 mps 738 mmHg 96%
    05:00 +14°C° 0.2 mm 4 mps 739 mmHg 96%
    06:00 +14°C° 0 mm 4 mps 739 mmHg 94%
    07:00 +14°C° 0 mm 4 mps 740 mmHg 92%
    08:00 +14°C° 0 mm 4 mps 741 mmHg 89%
    09:00 +14°C° 0 mm 4 mps 741 mmHg 83%
    10:00 +15°C° 0 mm 4 mps 742 mmHg 76%
    11:00 +17°C° 0 mm 4 mps 742 mmHg 70%
    12:00 +18°C° 0 mm 3 mps 742 mmHg 63%
    13:00 +19°C° 0 mm 3 mps 743 mmHg 56%
    14:00 +21°C° 0 mm 3 mps 743 mmHg 50%
    15:00 +20°C° 0 mm 2 mps 743 mmHg 51%
    16:00 +20°C° 0 mm 2 mps 743 mmHg 52%
    17:00 +21°C° 0 mm 1 mps 742 mmHg 53%
    18:00 +20°C° 0 mm 1 mps 742 mmHg 62%
    19:00 +18°C° 0 mm 1 mps 742 mmHg 71%
    20:00 +15°C° 0 mm 1 mps 742 mmHg 80%
    21:00 +15°C° 0.3 mm 1 mps 742 mmHg 85%
    22:00 +14°C° 0.3 mm 2 mps 742 mmHg 90%
    23:00 +14°C° 0.3 mm 2 mps 742 mmHg 95%
    Show more